Back to catalog

FENGYUN 1C DEB

AliveSSO
NORAD 29912·DEBRIS·🇨🇳 China

Launched May 10, 1999 from Taiyuan Satellite Launch Center

Loading…

Next Passes (next 24 hours)

TLE

FreshSource: Space-Track

Epoch: Sep 13, 2026, 20:50 UTC

1 29912U 99025HJ  26256.86834208  .00003355  00000-0  94555-3 0  9995
2 29912  98.7432   7.0179 0040970 117.7655   8.4725 14.45970812 20104

Track FENGYUN 1C DEB in real time with AllMySat

Download on the App Store